Regional Weather Roundup
Issued by NWS Huntsville, AL

Home | Current Version | Previous Version | Text Only | Print | Product List | Glossary On
Versions: 1 2 3 4 5 6 7 8 9 10 11 12 13 14 15 16 17 18 19 20 21 22 23 24 25 26 27 28 29 30 31 32 33 34 35 36 37 38 39 40 41 42 43 44 45 46 47 48 49 50
000
ASUS44 KHUN 290810
RWRHUN

WEATHER ROUNDUP FOR THE TENNESSEE VALLEY
NATIONAL WEATHER SERVICE HUNTSVILLE AL
300 AM CDT FRI APR 29 2016

ALZ001>004-290900-
NORTHWEST ALABAMA

CITY           SKY/WX    TMP DP  RH WIND       PRES   REMARKS
SHOALS AIRPORT CLEAR     60  57  89 CALM      29.99S
$$

ALZ005>007-016-290900-
NORTH CENTRAL ALABAMA

CITY           SKY/WX    TMP DP  RH WIND       PRES   REMARKS
DECATUR AP     CLEAR     59  56  89 CALM      29.99S
HUNTSVILLE AP  CLEAR     61  55  81 CALM      29.98S
HUN NWS/UAH      N/A     62  54  74 CALM        N/A
MERIDIANVILLE  CLEAR     55  52  88 CALM      30.00S
REDSTONE ARSN  CLEAR     58  56  93 NE5       29.98S
VINEMONT AP    FAIR      55  55  98 CALM      30.01S
$$

ALZ008>010-290900-
NORTHEAST ALABAMA

CITY           SKY/WX    TMP DP  RH WIND       PRES   REMARKS
ALBERTVILLE    CLEAR     59  59 100 CALM      29.99R
FORT PAYNE     CLEAR     54  52  94 CALM      30.00R
SCOTTSBORO AP  CLEAR     57  57 100 CALM      30.00R
SCOTTSBORO HCN   N/A     55 N/A N/A MISG        N/A
VALLEY HEAD      N/A     54 N/A N/A MISG        N/A
$$

TNZ076-096-097-290900-
SOUTHEASTERN MIDDLE TENNESSEE

CITY           SKY/WX    TMP DP  RH WIND       PRES   REMARKS
TULLAHOMA      CLEAR     54  54 100 CALM      30.01F
WINCHESTER     CLEAR     52  52 100 CALM      30.01S
$$

...SURROUNDING SITES...

CITY           SKY/WX    TMP DP  RH WIND       PRES   REMARKS
ATLANTA        CLEAR     68  58  70 W5        29.98R
ANNISTON       PTCLDY    60  57  89 CALM      29.99R
BIRMINGHAM     CLEAR     64  61  90 CALM      30.00S
CHATTANOOGA    CLEAR     60  56  86 N5        29.99R
DALTON         CLEAR     55  55 100 CALM      29.99R
GADSDEN        PTCLDY    56  56 100 CALM      30.00R
GOLDEN TRNGL   CLEAR     70  61  73 S3        29.95S
HALEYVILLE     FAIR      56  55  97 CALM      30.01S
JACKSON TN     CLOUDY    55  53  93 CALM      29.96S
MEMPHIS        CLOUDY    68  51  54 SE7       29.94F
NASHVILLE      CLEAR     58  54  86 S5        29.99F
OXFORD MS      FAIR      59  57  94 CALM      29.97S
ROME           CLEAR     58  56  93 CALM      29.98R
SAVANNAH       CLEAR     55  55 100 CALM      29.96S
TUPELO         CLEAR     62  59  90 CALM      29.96R
TUSCALOOSA     CLEAR     63  63 100 CALM      29.98R
$$

...GULF COAST WEATHER...

CITY           SKY/WX    TMP DP  RH WIND       PRES   REMARKS
GULFPORT       CLEAR     69  67  93 CALM      29.94S
PASCAGOULA     CLEAR     62  62 100 CALM      29.95S FOG
MOBILE         CLEAR     66  66 100 CALM      29.97R
GULF SHORES    SUNNY     63  63 100 NW5       29.96R FOG
DESTIN         CLEAR     70  68  93 CALM      29.96S FOG
PANAMA CITY    FOG       70  70 100 CALM      29.97S VSB 1/2
APPALACHICOLA  PTCLDY    74  74 100 W3        29.97R
$$




USA.gov is the U.S. government's official web portal to all federal, state and local government web resources and services.